TimeEST,TemperatureF,Dew PointF,Humidity,Sea Level PressureIn,VisibilityMPH,Wind Direction,Wind SpeedMPH,Gust SpeedMPH,PrecipitationIn,Events,Conditions,WindDirDegrees,DateUTC
12:01 AM,64.0,61.0,90,29.77,9.0,SSW,6.9,-,0.00,Rain,Light Rain,210,2013-12-15 05:01:00
12:19 AM,64.0,61.0,90,29.78,10.0,SW,8.1,-,0.00,Rain,Light Rain,220,2013-12-15 05:19:00
12:34 AM,64.0,61.0,90,29.76,7.0,SW,5.8,-,0.01,Rain,Light Rain,220,2013-12-15 05:34:00
12:54 AM,63.0,61.0,93,29.74,4.0,SW,5.8,-,0.03,Rain,Rain,220,2013-12-15 05:54:00
12:58 AM,63.0,61.0,93,29.76,2.5,SW,10.4,-,0.03,Rain,Rain,220,2013-12-15 05:58:00
1:13 AM,63.0,61.0,93,29.75,6.0,SW,10.4,-,0.05,Rain,Light Rain,230,2013-12-15 06:13:00
1:18 AM,63.0,61.0,93,29.75,8.0,SW,9.2,-,0.05,Rain,Light Rain,230,2013-12-15 06:18:00
1:51 AM,62.6,60.8,94,29.72,10.0,SW,8.1,-,0.05,,Overcast,220,2013-12-15 06:51:00
1:54 AM,63.0,61.0,93,29.71,10.0,SW,8.1,-,0.05,,Overcast,220,2013-12-15 06:54:00
2:14 AM,63.0,61.0,93,29.72,9.0,WSW,6.9,-,N/A,,Overcast,250,2013-12-15 07:14:00
2:19 AM,63.0,61.0,93,29.72,9.0,WSW,6.9,-,N/A,,Overcast,250,2013-12-15 07:19:00
2:26 AM,63.0,61.0,93,29.71,10.0,SW,6.9,-,N/A,,Overcast,230,2013-12-15 07:26:00
2:54 AM,63.0,61.0,93,29.70,10.0,West,9.2,-,N/A,,Overcast,280,2013-12-15 07:54:00
3:33 AM,63.0,60.1,90,29.72,10.0,WSW,9.2,-,0.00,,Overcast,250,2013-12-15 08:33:00
3:44 AM,63.0,60.1,90,29.72,10.0,West,11.5,-,0.01,,Overcast,260,2013-12-15 08:44:00
3:54 AM,63.0,60.1,90,29.72,10.0,West,12.7,-,0.01,,Overcast,270,2013-12-15 08:54:00
4:17 AM,63.0,59.0,87,29.72,10.0,West,10.4,-,N/A,,Overcast,280,2013-12-15 09:17:00
4:36 AM,62.1,59.0,90,29.74,10.0,WNW,11.5,-,N/A,,Overcast,290,2013-12-15 09:36:00
4:49 AM,62.6,57.2,82,29.74,10.0,West,19.6,26.5,N/A,,Overcast,280,2013-12-15 09:49:00
4:54 AM,62.1,57.0,84,29.73,10.0,West,18.4,26.5,N/A,,Overcast,280,2013-12-15 09:54:00
5:54 AM,57.9,54.0,87,29.75,10.0,West,16.1,-,N/A,,Overcast,280,2013-12-15 10:54:00
6:54 AM,57.0,54.0,89,29.76,7.0,SSW,8.1,-,0.00,Rain,Light Rain,210,2013-12-15 11:54:00
7:54 AM,55.9,53.1,90,29.80,6.0,WSW,8.1,-,0.02,Rain,Light Rain,240,2013-12-15 12:54:00
8:54 AM,55.9,53.1,90,29.84,10.0,WSW,11.5,-,0.02,,Overcast,240,2013-12-15 13:54:00
9:54 AM,55.9,51.1,84,29.83,10.0,West,20.7,25.3,N/A,,Overcast,280,2013-12-15 14:54:00
10:54 AM,54.0,50.0,86,29.85,10.0,WNW,12.7,21.9,N/A,,Overcast,290,2013-12-15 15:54:00
11:01 AM,54.0,50.0,86,29.82,9.0,NW,12.7,-,N/A,,Overcast,310,2013-12-15 16:01:00
11:08 AM,54.0,48.9,83,29.84,9.0,WNW,13.8,-,N/A,,Overcast,300,2013-12-15 16:08:00
11:54 AM,52.0,48.0,86,29.84,9.0,NW,11.5,-,N/A,,Overcast,310,2013-12-15 16:54:00
12:01 PM,52.0,48.0,86,29.83,9.0,WNW,12.7,-,N/A,,Overcast,290,2013-12-15 17:01:00
12:22 PM,54.0,48.0,80,29.82,10.0,West,10.4,-,N/A,,Scattered Clouds,280,2013-12-15 17:22:00
12:54 PM,55.0,46.9,74,29.83,10.0,WNW,10.4,-,N/A,,Mostly Cloudy,290,2013-12-15 17:54:00
1:10 PM,54.0,46.0,75,29.85,10.0,WNW,8.1,-,N/A,,Overcast,290,2013-12-15 18:10:00
1:46 PM,55.0,45.0,69,29.85,10.0,WNW,8.1,-,N/A,,Mostly Cloudy,300,2013-12-15 18:46:00
1:54 PM,55.9,46.0,69,29.84,10.0,WNW,11.5,-,N/A,,Scattered Clouds,300,2013-12-15 18:54:00
2:54 PM,55.0,45.0,69,29.85,10.0,West,6.9,-,N/A,,Partly Cloudy,260,2013-12-15 19:54:00
3:54 PM,54.0,44.1,69,29.87,10.0,NW,10.4,-,N/A,,Clear,310,2013-12-15 20:54:00
4:54 PM,53.1,44.1,71,29.91,10.0,NW,9.2,-,N/A,,Overcast,310,2013-12-15 21:54:00
5:01 PM,53.1,43.0,69,29.92,10.0,NW,10.4,-,N/A,,Overcast,310,2013-12-15 22:01:00
5:22 PM,52.0,42.1,69,29.93,10.0,NW,10.4,-,N/A,,Overcast,310,2013-12-15 22:22:00
5:54 PM,50.0,42.1,74,29.94,10.0,WNW,8.1,-,N/A,,Clear,290,2013-12-15 22:54:00
6:54 PM,48.0,41.0,77,29.96,10.0,West,6.9,-,N/A,,Clear,280,2013-12-15 23:54:00
7:54 PM,44.1,39.9,85,29.99,10.0,West,5.8,-,N/A,,Clear,270,2013-12-16 00:54:00
8:54 PM,43.0,39.0,86,30.01,10.0,West,5.8,-,N/A,,Clear,280,2013-12-16 01:54:00
9:54 PM,46.0,37.9,73,30.04,10.0,WNW,6.9,-,N/A,,Clear,300,2013-12-16 02:54:00
10:54 PM,44.1,34.0,68,30.06,10.0,WNW,5.8,-,N/A,,Clear,300,2013-12-16 03:54:00
11:54 PM,41.0,33.1,73,30.06,10.0,West,5.8,-,N/A,,Clear,260,2013-12-16 04:54:00